This is the latest recevied weather packets stored in our database for station/object XW7RMR. If no packets are shown the sender has not sent any weather packets the latest 10 day(s).
| Time | Temp. | Humidity | Pressure | Rain* | Wind** | Luminosity | Snow |
|---|---|---|---|---|---|---|---|
| 1777952066 | 16.11° C | 74% | 1010.1 hPa | 0 mm | - | 1 W/m² | - |
| 1777951764 | 16.67° C | 73% | 1009.9 hPa | 0 mm | - | 2 W/m² | - |
| 1777951461 | 16.67° C | 72% | 1009.9 hPa | 0 mm | - | 3 W/m² | - |
| 1777951158 | 16.67° C | 71% | 1009.9 hPa | 0 mm | - | 5 W/m² | - |
| 1777950855 | 17.22° C | 71% | 1009.8 hPa | 0 mm | - | 7 W/m² | - |
| 1777950552 | 17.78° C | 70% | 1009.8 hPa | 0 mm | - | 9 W/m² | - |
| 1777950247 | 17.78° C | 69% | 1009.4 hPa | 0 mm | - | 12 W/m² | - |
| 1777949943 | 18.33° C | 68% | 1009.5 hPa | 0 mm | - | 15 W/m² | - |
| 1777949641 | 18.33° C | 68% | 1009.6 hPa | 0 mm | - | 19 W/m² | - |
| 1777949340 | 18.89° C | 67% | 1009.4 hPa | 0 mm | - | 22 W/m² | - |
| 1777949036 | 19.44° C | 66% | 1009.3 hPa | 0 mm | - | 25 W/m² | - |
| 1777948733 | 19.44° C | 65% | 1009.3 hPa | 0 mm | - | 28 W/m² | - |
| 1777948430 | 20° C | 63% | 1009.2 hPa | 0 mm | - | 36 W/m² | - |
| 1777948128 | 20.56° C | 63% | 1009.2 hPa | 0 mm | - | 43 W/m² | - |
| 1777947824 | 21.11° C | 62% | 1009.3 hPa | 0 mm | - | 54 W/m² | - |
| 1777947522 | 21.67° C | 61% | 1009.1 hPa | 0 mm | - | 66 W/m² | - |
| 1777947218 | 21.67° C | 60% | 1009.1 hPa | 0 mm | - | 75 W/m² | - |
| 1777946914 | 21.67° C | 61% | 1009.1 hPa | 0 mm | - | 86 W/m² | - |
| 1777946610 | 22.22° C | 59% | 1009 hPa | 0 mm | - | 98 W/m² | - |
| 1777946307 | 22.78° C | 58% | 1009 hPa | 0 mm | - | 110 W/m² | - |
| 1777946004 | 22.78° C | 58% | 1009.1 hPa | 0 mm | - | 122 W/m² | - |
| 1777945701 | 23.33° C | 58% | 1009.2 hPa | 0 mm | - | 133 W/m² | - |
| 1777945398 | 22.78° C | 58% | 1009.1 hPa | 0 mm | - | 143 W/m² | - |
| 1777945095 | 22.78° C | 57% | 1009.2 hPa | 0 mm | - | 156 W/m² | - |
| 1777944792 | 22.78° C | 59% | 1009.1 hPa | 0 mm | - | 169 W/m² | - |
* Rain latest hour (hover to see other rain measurements)
** Current wind speed in m/s (hover to see current wind gust speed)